Location: Mauries
(43.6188°N, 0.3322°W)
Time: 19:35:25
(UTC+00:00)

BREEZE-M DEB (TANK) - Pass Details

Date: 14 January 2026
Orbit: 326 x 14637 km, 49.5° (Epoch: 11 February)

Event Time Altitude Azimuth Distance (km) Brightness Sun altitude
Exits shadow 05:27:35 25° 29° (NNE) 850 4.4 -22.1°
Drops below altitude 10° 05:30:14 10° 73° (ENE) 1,912 7.0 -21.6°
Sets 05:33:57 0° 85° (E) 3,723 8.9 -20.9°
